Location: Naloco
(16.5478°S, 37.1017°E)
Time: 12:37:19
(UTC+00:00)

Daily predictions for brighter satellites

Satellite Brightness Start Highest point End
(mag) Time Altitude Azimuth Time Altitude Azimuth Time Altitude Azimuth
H-2A R/B 3.8 15:25:19 10° SW 15:28:48 26° S 15:38:58 10° ESE
GPS 2-12 Rocket1 3.3 15:35:01 10° W 15:39:24 54° S 15:43:46 10° ESE
Cosmos 1452 Rocket 3.5 15:35:56 10° N 15:41:10 79° ENE 15:46:28 10° SSE
CORIOLIS 4.2 15:36:02 10° SSE 15:41:26 68° ENE 15:46:49 10° N
Abrixas rocket 3.5 15:39:17 10° N 15:41:29 20° NE 15:43:42 10° ESE
NOSS 3-2 (A) 3.1 15:36:53 10° SSW 15:42:35 83° ESE 15:47:56 10° NNE
SL-24 R/B 4.4 15:40:35 10° NNE 15:44:36 48° ESE 15:49:14 10° S
Cosmos 1939 Rocket 4.2 15:43:32 10° SE 15:46:16 18° E 15:48:58 10° NE
CZ-2C R/B 4.1 15:43:42 10° ENE 15:46:53 16° ESE 15:50:06 10° SE
Hubble Space Telescope 2.4 15:44:17 10° SW 15:47:31 21° SSE 15:50:45 10° ESE
Cosmos 2084 Rocket 4.1 15:44:21 10° S 15:48:06 32° ESE 15:51:49 10° NE
Cosmos 2369 Rocket 2.2 15:44:16 10° N 15:49:56 77° ENE 15:55:40 10° SSE
Delta 128 4.0 15:46:16 10° WNW 15:51:10 80° NNE 15:56:54 10° ESE
NOSS 3-2 (C) 3.3 15:46:10 10° SSW 15:51:44 51° ESE 15:56:56 10° NE
Cosmos 614 Rocket 4.0 15:46:46 10° SSW 15:51:54 90° NE 15:56:59 10° NNE
Helios 1A Rocket 3.5 15:48:40 10° SSE 15:52:27 36° E 15:56:10 10° NNE
Cosmos 1833 Rocket 3.2 15:48:10 10° SSW 15:53:45 68° WNW 15:59:18 10° N
YAOGAN 1 4.3 15:51:54 10° ESE 15:54:05 14° E 15:56:14 10° NE
IUS-1 SRM-2 2.7 15:54:27 10° NNW 15:56:12 25° NNE 15:58:33 12° E
Nadezhda 3 Rocket 4.3 15:51:07 10° NNE 15:56:53 44° E 16:02:44 10° SSE
Cosmos 1943 Rocket 3.3 15:57:40 10° NW 16:02:54 45° WSW 16:08:10 10° S
Cosmos 1408 Rocket 4.4 15:59:08 10° SSW 16:03:32 57° W 16:07:54 10° N
Cosmos 2263 4.2 15:57:54 10° N 16:03:35 70° ENE 16:09:15 10° SSE
FengYun 1-2 T 4.2 16:00:27 10° SSE 16:06:03 78° ENE 16:11:32 10° N
Sich 1 4.5 16:04:32 10° SE 16:07:23 17° E 16:10:16 10° ENE
MOS 1 Rocket 3.5 16:03:23 10° NNE 16:08:09 48° ESE 16:12:40 10° S
Cosmos 304 Rocket 4.5 16:03:58 10° NNW 16:08:38 57° WSW 16:13:21 10° S
Cosmos 1862 4.1 16:05:27 10° SSE 16:09:00 29° E 16:12:31 10° NE
OAO 3 Rocket 3.1 16:04:30 10° SW 16:09:12 77° SSE 16:13:48 11° ENE
Delta 2 Rocket 4.2 16:05:48 10° SW 16:10:35 40° SSE 16:13:31 18° E
Cosmos 1743 Rocket 3.5 16:07:01 10° S 16:11:26 77° E 16:15:49 10° N
Cosmos 676 Rocket 4.2 16:13:45 10° S 16:18:48 46° ESE 16:23:50 10° NNE
Stardust Del rocket 3.8 16:18:39 10° SW 16:20:34 20° S 16:20:51 20° SSE
ATLAS 3B R/B 3.5 16:15:10 10° S 16:20:57 27° ESE 16:24:20 19° E
Milstar 3 3.7 16:15:49 10° NW 16:23:15 61° NNE 16:31:57 21° ESE
IRS-1C Rocket 4.2 16:18:08 10° S 16:23:27 84° WSW 16:28:43 10° NNW
FALCON 9 R/B 2.5 16:23:03 10° N 16:24:14 14° NNE 16:24:14 14° NNE
Cosmos 1821 Rocket 4.5 16:19:03 10° SSE 16:24:33 34° E 16:30:00 10° NNE
Cosmos 1500 Rocket 4.0 16:24:40 10° SSW 16:28:59 63° W 16:33:14 10° N
CZ-2D R/B 3.1 16:25:55 10° SSE 16:29:42 62° E 16:33:26 10° N
Cosmos 2366 rocket 4.4 16:23:52 10° SSW 16:30:11 66° W 16:36:23 10° N
BREEZE-M DEB (TANK) 2.0 16:28:40 10° NW 16:31:14 72° SW 16:31:50 45° SSE
Cosmos 1606 2.5 16:31:38 10° N 16:35:23 84° E 16:39:10 10° S
Cosmos 1441 Rocket 3.1 16:31:38 10° S 16:35:34 78° E 16:39:25 10° N
Atlas Centaur 2 2.0 16:32:39 10° SW 16:36:02 30° SSE 16:36:05 30° SSE
Cosmos 1110 Rocket 4.2 16:33:29 10° NNW 16:38:43 72° WSW 16:43:57 10° S
Mugunghwa Rocket 4.2 16:32:52 10° WNW 16:40:06 76° SSW 16:43:31 31° ESE
CSL-04 Rocket 4.1 16:41:35 36° E 16:42:27 38° E 16:47:21 10° NNE
Okean-O 2.8 16:40:45 10° S 16:45:11 71° WSW 16:49:35 10° NNW
CZ-4 R/B 1.2 16:43:34 20° S 16:46:14 84° W 16:50:05 10° NNW
Cosmos 1954 Rocket 4.0 16:43:14 10° SSW 16:48:32 82° WNW 16:53:49 10° N
Iridium 2 3.7 16:46:30 10° N 16:50:14 79° W 16:52:09 28° S
Cosmos 2239 Rocket 4.5 16:45:02 10° S 16:51:05 53° E 16:57:02 10° NNE
CENTAUR R/B 3.3 16:47:41 10° SW 16:52:31 41° WNW 16:57:25 10° N
Cosmos 292 Rocket 3.7 16:48:10 10° N 16:52:49 56° ENE 16:52:50 56° E
Cosmos 1805 Rocket 3.6 16:48:30 10° S 16:52:54 76° W 16:57:17 10° N
Cosmos 1302 Rocket 3.9 16:48:31 10° N 16:53:41 62° ENE 16:54:52 49° SE
Cosmos 2082 Rocket 4.2 16:52:34 10° SW 16:57:22 28° WNW 17:02:10 10° NNW
ATLAS 2AS CENTAUR RB 3.1 17:03:05 10° WNW 17:04:48 18° NW 17:04:48 18° NW
DMSP B5D2-2 4.2 17:00:21 10° N 17:05:35 73° WNW 17:10:54 10° SSW
Cosmos 1328 Rocket 4.0 17:03:02 10° NNW 17:07:24 60° W 17:09:22 31° SSW
SWIFT 3.3 17:05:08 10° WSW 17:08:24 41° SW 17:08:24 41° SW
ISS -1.3 17:12:57 10° NW 17:14:06 20° NW 17:14:06 20° NW
GPS 2-14 Rocket1 4.3 17:15:01 10° W 17:17:36 33° WSW 17:17:36 33° WSW
GPS 2-12 Rocket1 4.3 17:18:38 10° WSW 17:21:23 36° WSW 17:21:23 36° WSW
CSL-04 Debris 4.5 17:24:35 51° SSW 17:25:48 65° WSW 17:31:14 10° NNW
CZ-2C R/B 4.0 17:21:47 10° NNW 17:26:43 39° W 17:31:49 10° SSW
Hubble Space Telescope 3.0 17:24:55 10° WSW 17:26:24 21° SW 17:26:24 21° SW
YAOGAN 1 4.5 17:28:19 21° SW 17:30:01 27° WSW 17:33:42 10° NW
CZ-2C R/B 4.4 17:44:28 33° NW 17:44:28 33° NW 17:47:27 10° NNW
H-2A R/B 3.8 17:46:29 25° NNW 17:46:29 25° NNW 17:48:39 10° NNW
Milstar 3 Cent rocket 4.3 17:44:45 10° SW 17:45:54 15° SW 17:45:54 15° SW
ATLAS 3B R/B 3.9 18:05:20 10° SW 18:11:29 35° WNW 18:11:47 35° WNW
CZ-3 R/B 4.5 22:25:38 10° NW 23:43:51 75° ESE 23:56:42 10° ESE
